| time (UTC) | temp C | wind direction | speed KPH | gust KPH | rain 1hr cm | rain 24hr cm | rain mn cm | humidity % | barometer mb |
| 20260903183021 | 17 | 161 | 3.2 | 11.3 | 0.00 | 0.53 | 0.10 | 53 | 1010.2 |
| 20260903181517 | 17 | 161 | 1.6 | 9.7 | 0.00 | 0.53 | 0.10 | 65 | 1010.0 |
| 20260903180030 | 17 | 161 | 1.6 | 8.0 | 0.00 | 0.53 | 0.10 | 58 | 1009.9 |
| 20260903174513 | 16 | 161 | 0.0 | 9.7 | 0.00 | 0.53 | 0.10 | 66 | 1009.9 |
| 20260903173010 | 16 | 160 | 3.2 | 6.4 | 0.00 | 0.53 | 0.10 | 69 | 1010.0 |
| 20260903171507 | 15 | 161 | 0.0 | 4.8 | 0.00 | 0.53 | 0.10 | 78 | 1009.9 |
| 20260903170004 | 15 | 161 | 1.6 | 8.0 | 0.00 | 0.53 | 0.10 | 81 | 1009.9 |
| 20260903164501 | 13 | 161 | 0.0 | 1.6 | 0.00 | 0.53 | 0.10 | 82 | 1009.9 |
| 20260903163056 | 13 | 161 | 0.0 | 3.2 | 0.00 | 0.53 | 0.10 | 87 | 1009.8 |
| 20260903161554 | 12 | 161 | 0.0 | 3.2 | 0.00 | 0.53 | 0.10 | 91 | 1009.8 |
| 20260903160050 | 12 | 161 | 1.6 | 4.8 | 0.00 | 0.53 | 0.10 | 92 | 1009.8 |
| 20260903154547 | 11 | 161 | 0.0 | 3.2 | 0.00 | 0.53 | 0.10 | 94 | 1009.7 |
| 20260903153045 | 11 | 161 | 0.0 | 1.6 | 0.00 | 0.53 | 0.10 | 96 | 1009.4 |
| 20260903151542 | 10 | 161 | 0.0 | 4.8 | 0.00 | 0.53 | 0.10 | 95 | 1009.6 |
| 20260903150038 | 10 | 161 | 0.0 | 1.6 | 0.00 | 0.53 | 0.10 | 95 | 1009.5 |
| 20260903144539 | 10 | 161 | 0.0 | 1.6 | 0.00 | 0.53 | 0.10 | 95 | 1009.4 |
| 20260903143036 | 10 | 161 | 0.0 | 0.0 | 0.00 | 0.53 | 0.10 | 96 | 1009.3 |
| 20260903141534 | 10 | 161 | 0.0 | 0.0 | 0.00 | 0.53 | 0.10 | 96 | 1009.1 |
| 20260903140031 | 10 | 160 | 0.0 | 0.0 | 0.00 | 0.53 | 0.10 | 96 | 1008.9 |
| 20260903134530 | 10 | 161 | 0.0 | 3.2 | 0.00 | 0.53 | 0.10 | 96 | 1008.9 |
| 20260903133030 | 10 | 161 | 0.0 | 3.2 | 0.00 | 0.53 | 0.10 | 96 | 1008.7 |
| 20260903131530 | 10 | 161 | 0.0 | 0.0 | 0.00 | 0.53 | 0.10 | 96 | 1008.5 |
| 20260903130030 | 10 | 161 | 0.0 | 0.0 | 0.00 | 0.53 | 0.10 | 96 | 1008.5 |
| 20260903124527 | 10 | 161 | 0.0 | 0.0 | 0.00 | 0.53 | 0.10 | 95 | 1008.5 |
| 20260903123027 | 10 | 161 | 0.0 | 0.0 | 0.03 | 0.53 | 0.10 | 95 | 1008.1 |
| 20260903121526 | 10 | 161 | 0.0 | 0.0 | 0.03 | 0.53 | 0.10 | 95 | 1008.1 |
| 20260903120029 | 10 | 161 | 0.0 | 1.6 | 0.03 | 0.53 | 0.10 | 95 | 1008.3 |
| 20260903114525 | 10 | 161 | 0.0 | 0.0 | 0.03 | 0.53 | 0.10 | 95 | 1008.4 |
| 20260903113033 | 10 | 161 | 0.0 | 1.6 | 0.00 | 0.51 | 0.08 | 95 | 1008.6 |
| 20260903111523 | 10 | 161 | 0.0 | 0.0 | 0.00 | 0.51 | 0.08 | 95 | 1008.3 |
| 20260903110051 | 10 | 161 | 0.0 | 0.0 | 0.00 | 0.51 | 0.08 | 95 | 1008.2 |
| 20260903104522 | 10 | 161 | 0.0 | 0.0 | 0.00 | 0.51 | 0.08 | 95 | 1008.3 |
| 20260903103023 | 10 | 161 | 0.0 | 0.0 | 0.00 | 0.51 | 0.08 | 95 | 1008.1 |
| 20260903101519 | 10 | 161 | 0.0 | 1.6 | 0.00 | 0.51 | 0.08 | 96 | 1007.9 |
| 20260903100023 | 10 | 161 | 0.0 | 3.2 | 0.00 | 0.51 | 0.08 | 95 | 1007.8 |
| 20260903094542 | 10 | 161 | 0.0 | 3.2 | 0.00 | 0.51 | 0.08 | 95 | 1007.7 |
| 20260903093018 | 10 | 160 | 0.0 | 0.0 | 0.00 | 0.51 | 0.08 | 95 | 1007.7 |
| 20260903091521 | 10 | 161 | 0.0 | 0.0 | 0.00 | 0.51 | 0.08 | 94 | 1007.6 |
| 20260903090017 | 10 | 161 | 0.0 | 1.6 | 0.00 | 0.51 | 0.08 | 94 | 1007.7 |
| 20260903084516 | 10 | 161 | 0.0 | 0.0 | 0.00 | 0.51 | 0.08 | 94 | 1007.8 |
| 20260903083015 | 10 | 161 | 0.0 | 1.6 | 0.03 | 0.51 | 0.08 | 94 | 1008.0 |
| 20260903081518 | 10 | 161 | 0.0 | 1.6 | 0.03 | 0.51 | 0.08 | 94 | 1008.1 |
| 20260903080014 | 10 | 161 | 0.0 | 1.6 | 0.05 | 0.51 | 0.08 | 93 | 1007.9 |
| 20260903074512 | 10 | 160 | 0.0 | 3.2 | 0.08 | 0.51 | 0.08 | 94 | 1007.7 |
| 20260903073012 | 10 | 161 | 0.0 | 1.6 | 0.05 | 0.48 | 0.05 | 93 | 1008.1 |
| 20260903071510 | 10 | 161 | 0.0 | 0.0 | 0.05 | 0.48 | 0.05 | 93 | 1008.0 |
| 20260903070008 | 10 | 161 | 0.0 | 0.0 | 0.03 | 0.46 | 0.03 | 93 | 1007.8 |
| 20260903064509 | 10 | 161 | 0.0 | 1.6 | 0.00 | 0.43 | 0.00 | 92 | 1007.8 |
| 20260903063007 | 10 | 161 | 0.0 | 1.6 | 0.00 | 0.43 | 0.00 | 92 | 1007.6 |
| 20260903061504 | 10 | 161 | 1.6 | 6.4 | 0.00 | 0.43 | 0.00 | 92 | 1007.5 |
| 20260903060100 | 9 | 161 | 0.0 | 1.6 | 0.00 | 0.43 | 0.00 | 94 | 1007.6 |
| 20260903054559 | 10 | 161 | 1.6 | 3.2 | 0.00 | 0.43 | 0.43 | 92 | 1007.7 |
| 20260903053111 | 10 | 161 | 1.6 | 8.0 | 0.00 | 0.43 | 0.43 | 91 | 1007.6 |
| 20260903051601 | 9 | 161 | 0.0 | 1.6 | 0.00 | 0.43 | 0.43 | 94 | 1007.6 |
| 20260903050059 | 10 | 161 | 0.0 | 1.6 | 0.00 | 0.43 | 0.43 | 93 | 1007.6 |
| 20260903044604 | 10 | 161 | 0.0 | 1.6 | 0.00 | 0.43 | 0.43 | 94 | 1007.6 |
| 20260903043056 | 10 | 161 | 0.0 | 4.8 | 0.00 | 0.43 | 0.43 | 93 | 1007.7 |
| 20260903041555 | 10 | 161 | 0.0 | 3.2 | 0.00 | 0.43 | 0.43 | 91 | 1007.7 |
| 20260903040056 | 11 | 161 | 0.0 | 1.6 | 0.00 | 0.43 | 0.43 | 92 | 1007.8 |
| 20260903034552 | 11 | 161 | 0.0 | 1.6 | 0.00 | 0.43 | 0.43 | 93 | 1007.8 |
| 20260903033107 | 11 | 161 | 0.0 | 1.6 | 0.00 | 0.43 | 0.43 | 92 | 1007.6 |
| 20260903031550 | 11 | 161 | 0.0 | 3.2 | 0.00 | 0.43 | 0.43 | 91 | 1007.2 |
| 20260903030049 | 11 | 161 | 0.0 | 0.0 | 0.00 | 0.43 | 0.43 | 90 | 1007.1 |
| 20260903024548 | 12 | 161 | 0.0 | 1.6 | 0.00 | 0.43 | 0.43 | 89 | 1006.9 |
| 20260903023052 | 13 | 161 | 0.0 | 0.0 | 0.00 | 0.43 | 0.43 | 86 | 1006.7 |
| 20260903021603 | 14 | 161 | 0.0 | 0.0 | 0.00 | 0.43 | 0.43 | 82 | 1006.8 |
| 20260903020045 | 15 | 161 | 0.0 | 3.2 | 0.00 | 0.43 | 0.43 | 80 | 1007.1 |
| 20260903014548 | 15 | 161 | 0.0 | 3.2 | 0.00 | 0.43 | 0.43 | 80 | 1007.0 |
| 20260903013045 | 15 | 161 | 0.0 | 3.2 | 0.00 | 0.43 | 0.43 | 80 | 1006.9 |
| 20260903011546 | 16 | 161 | 0.0 | 3.2 | 0.00 | 0.43 | 0.43 | 77 | 1006.7 |
| 20260903010048 | 16 | 161 | 0.0 | 3.2 | 0.00 | 0.43 | 0.43 | 80 | 1006.7 |
| 20260903004555 | 16 | 161 | 0.0 | 4.8 | 0.00 | 0.43 | 0.43 | 81 | 1006.7 |
| 20260903003042 | 15 | 161 | 1.6 | 6.4 | 0.00 | 0.43 | 0.43 | 79 | 1006.9 |
| 20260903001542 | 16 | 161 | 1.6 | 4.8 | 0.00 | 0.43 | 0.43 | 79 | 1006.9 |
| 20260903000042 | 15 | 161 | 1.6 | 3.2 | 0.00 | 0.43 | 0.43 | 81 | 1006.8 |
| 20260902234540 | 15 | 161 | 0.0 | 3.2 | 0.00 | 0.43 | 0.43 | 83 | 1006.9 |
| 20260902233040 | 15 | 161 | 0.0 | 3.2 | 0.00 | 0.43 | 0.43 | 83 | 1006.8 |
| 20260902231547 | 15 | 161 | 0.0 | 3.2 | 0.00 | 0.43 | 0.43 | 83 | 1006.7 |
| 20260902230039 | 15 | 161 | 1.6 | 4.8 | 0.00 | 0.43 | 0.43 | 82 | 1006.5 |
| 20260902224538 | 15 | 161 | 3.2 | 8.0 | 0.00 | 0.43 | 0.43 | 81 | 1006.3 |
| 20260902223037 | 16 | 161 | 1.6 | 8.0 | 0.00 | 0.43 | 0.43 | 73 | 1006.2 |
| 20260902221538 | 17 | 161 | 0.0 | 3.2 | 0.00 | 0.43 | 0.43 | 69 | 1006.4 |
| 20260902220043 | 16 | 161 | 0.0 | 3.2 | 0.00 | 0.43 | 0.43 | 68 | 1006.4 |
| 20260902214538 | 16 | 161 | 0.0 | 1.6 | 0.00 | 0.43 | 0.43 | 72 | 1006.5 |
| 20260902213035 | 16 | 161 | 0.0 | 8.0 | 0.00 | 0.43 | 0.43 | 73 | 1006.6 |
| 20260902211534 | 15 | 161 | 3.2 | 9.7 | 0.00 | 0.43 | 0.43 | 80 | 1006.6 |
| 20260902210040 | 15 | 161 | 1.6 | 9.7 | 0.00 | 0.43 | 0.43 | 79 | 1006.8 |
| 20260902204541 | 15 | 161 | 3.2 | 8.0 | 0.13 | 0.43 | 0.43 | 85 | 1007.1 |
| 20260902203032 | 14 | 161 | 1.6 | 4.8 | 0.36 | 0.43 | 0.43 | 81 | 1006.8 |
| 20260902201533 | 14 | 161 | 0.0 | 3.2 | 0.43 | 0.43 | 0.43 | 83 | 1006.7 |
| 20260902200029 | 13 | 161 | 0.0 | 4.8 | 0.43 | 0.43 | 0.43 | 85 | 1006.5 |
| 20260902194526 | 13 | 161 | 0.0 | 12.9 | 0.30 | 0.30 | 0.30 | 83 | 1006.9 |
| 20260902193023 | 15 | 160 | 11.3 | 33.8 | 0.05 | 0.05 | 0.05 | 74 | 1007.1 |
| 20260902191523 | 18 | 161 | 6.4 | 14.5 | 0.00 | 0.00 | 0.00 | 53 | 1005.8 |
| 20260902190021 | 19 | 161 | 9.7 | 17.7 | 0.00 | 0.00 | 0.00 | 51 | 1005.0 |
| 20260902184519 | 20 | 162 | 4.8 | 14.5 | 0.00 | 0.00 | 0.00 | 51 | 1004.7 |